Location: Lancaster
(34.6980°N, 118.1360°W)
Time: 21:41:19
(UTC-08:00)

Tiangong 2 - Visible Passes

Search period start: 18 January 2018 00:00
Search period end: 28 January 2018 00:00
Orbit: 384 x 390 km, 42.8° (Epoch: 18 January)

Date Brightness Start Highest point End Pass type
(mag) Time Alt. Az. Time Alt. Az. Time Alt. Az.
18 Jan 1.4 05:16:02 64° SE 05:16:02 64° SE 05:19:04 10° ENE visible
19 Jan 1.8 05:52:52 26° WNW 05:54:03 38° NNW 05:57:04 10° NE visible
20 Jan 3.4 04:57:12 21° NE 04:57:12 21° NE 04:58:26 10° ENE visible
20 Jan 2.8 06:29:57 10° WNW 06:32:28 21° N 06:34:59 10° NE visible
21 Jan 2.5 05:33:42 26° N 05:33:42 26° N 05:36:19 10° NE visible
22 Jan 3.0 06:10:06 12° NW 06:12:03 19° N 06:14:25 10° NE visible
23 Jan 3.3 05:14:09 18° NNE 05:14:09 18° NNE 05:15:36 10° NE visible
24 Jan 3.1 05:50:25 16° NNW 05:51:38 19° N 05:54:00 10° NE visible
25 Jan 4.0 04:54:23 13° NE 04:54:23 13° NE 04:54:59 10° NE visible
26 Jan 2.9 05:30:37 20° N 05:31:09 21° N 05:33:41 10° ENE visible
27 Jan 2.0 06:06:51 13° NW 06:09:30 40° NNE 06:12:31 10° E visible
